Tracking 25405 objects as of 26-Jan-2022
HD Live streaming from Space Station
objects crossing your sky now

APSTAR 1

Track APSTAR 1 now!
APSTAR 1 is classified as:


NORAD ID: 23185
Int'l Code: 1994-043A
Perigee: 36,016.9 km
Apogee: 36,078.4 km
Inclination: 11.7 °
Period: 1,449.1 minutes
Semi major axis: 42418 km
RCS: 25.1188 m2 (large)
Launch date: July 21, 1994
Source: People's Republic of China (PRC)
Launch site: Xichang Space Center, China (XSC)

24 C-band transponders.
aabbcc
Your satellite tracking list
Your tracking list is empty




NASA's NSSDC Master Catalog

Two Line Element Set (TLE):
1 23185U 94043A   22026.00041549  .00000067  00000-0  00000-0 0  9997
2 23185  11.6857  28.4976 0007247   5.8806 159.3950  0.99372743 29144
Source of the keplerian elements: AFSPC